Location: Castifao
(42.5040°N, 9.1124°E)
Time: 03:52:21
(UTC+00:00)

Cosmos 2263 Rocket - Pass Details

Date: 23 January 2020
Orbit: 823 x 849 km, 71.0° (Epoch: 16 February)

Event Time Altitude Azimuth Distance (km) Brightness Sun altitude
Rises 18:05:52 0° 162° (SSE) 3,342 5.2 -18.5°
Reaches altitude 10° 18:08:52 10° 146° (SE) 2,416 4.3 -19.0°
Enters shadow 18:09:44 13° 138° (SE) 2,201 4.1 -19.2°
